#timestamp,LO_Frequency,Hit,StdDev 
1525550415.7,286046989.0,Y
1525550435.5,286046995.5,P
1525550455.3,286046995.9,P
1525550475.2,286046998.0,N
1525550495.0,286046995.6,Y
1525550495.9,286046995.6,P
1525550515.8,286046998.2,P
1525550535.6,286047000.7,N
1525550555.4,286047000.8,N
1525550575.3,286046998.2,N
1525550595.1,286047000.9,N
1525550615.8,286047002.4,N
1525550635.7,286047000.2,N
1525550655.5,286047000.9,N
1525550675.4,286047002.0,N
1525550695.2,286047000.5,N
1525550715.0,286047000.1,N
1525550715.9,286047000.1,N
1525550735.8,286046999.9,N
1525550755.6,286047000.1,N
1525550775.4,286047002.4,N
1525550795.3,286047002.0,N
1525550815.1,286047002.8,N
1525550835.9,286046999.7,N
1525550855.7,286047000.4,N
1525550875.5,286047000.4,N
1525550895.4,286047000.5,N
1525550915.2,286047000.7,N
1525550935.0,286047000.1,N
1525550935.9,286047000.1,N
1525550955.8,286047002.6,N
1525550975.6,286046999.7,N
1525550995.5,286047000.0,N
1525551015.3,286047002.5,N
1525551035.1,286047001.3,N
1525551055.9,286047004.2,N
1525551075.7,286047003.4,N
1525551095.5,286047003.4,N
1525551115.4,286047001.9,N
1525551135.2,286047004.0,N
1525551155.1,286047004.2,Y
1525551156.0,286047004.2,P
1525551175.8,286047004.3,N
1525551195.6,286047006.0,P
1525551215.5,286047005.4,Y
1525551235.3,286046998.4,P
1525551255.2,286047000.2,N
1525551275.9,286047001.5,N
1525551295.7,286047001.9,N
1525551315.6,286047003.1,N
1525551335.4,286047002.0,N
1525551355.2,286047003.0,N
1525551375.1,286047001.9,N
1525551376.0,286047001.9,N
1525551395.8,286047002.7,N
1525551415.7,286047001.3,N
1525551435.5,286047001.3,N
1525551455.3,286047001.5,N
1525551475.2,286047002.8,N
1525551495.0,286047001.8,N
1525551495.9,286047001.8,N
1525551515.8,286047001.4,N
1525551535.6,286047004.3,Y
1525551555.4,286047001.5,P
1525551575.3,286047001.4,P
1525551595.1,286047004.3,P
1525551615.9,286047004.2,Y
1525551635.7,286047002.8,P
1525551655.5,286047002.8,P
1525551675.4,286046998.6,P
1525551695.2,286046997.4,N
1525551715.0,286046999.5,N
1525551715.9,286046999.5,N
1525551735.8,286046998.2,N
1525551755.6,286046998.6,N
1525551775.5,286046998.7,N
1525551795.3,286047001.1,N
1525551815.1,286046998.1,N
1525551835.9,286046998.2,N
1525551855.7,286046999.1,N
1525551875.5,286046997.7,N
1525551895.4,286046994.0,Y
1525551915.2,286046993.9,P
1525551935.1,286046995.8,N
1525551936.0,286046995.8,N
1525551955.8,286046993.8,Y
1525551975.6,286047000.8,P
1525551995.5,286046998.9,N
1525552015.3,286047000.2,N
1525552035.2,286047002.3,N
1525552055.9,286047001.4,N
1525552075.7,286047002.5,N
1525552095.6,286047002.2,N
1525552115.4,286047000.0,N
1525552135.2,286046998.2,N
1525552155.1,286046999.6,N
1525552156.0,286046999.6,N
1525552175.8,286046998.3,N
1525552195.7,286046999.9,N
1525552215.5,286046999.9,N
1525552235.3,286046999.8,N
1525552255.2,286047000.1,N
1525552275.0,286047000.1,N
1525552275.9,286047000.1,N
1525552295.8,286047002.0,N
1525552315.6,286047003.7,N
1525552335.4,286047003.3,N
1525552355.3,286047001.4,N
1525552375.1,286047000.9,N
1525552395.8,286046999.9,N
1525552415.7,286046999.8,N
1525552435.5,286047002.8,N
1525552455.4,286047002.3,N
1525552475.2,286047001.0,N
1525552495.0,286047000.7,N
1525552495.9,286047000.7,N
1525552515.8,286047002.6,N
1525552535.6,286047000.4,N
1525552555.4,286047000.0,N
1525552575.3,286047000.9,N
1525552595.1,286047001.0,N
1525552615.9,286046999.1,N
1525552635.7,286046998.9,N
1525552655.5,286047000.4,N
1525552675.4,286047000.5,N
1525552695.2,286047000.2,N
1525552715.1,286046999.0,N
1525552716.0,286046999.0,N
1525552735.8,286046998.6,N
1525552755.6,286046999.5,N
1525552775.5,286046997.2,N
1525552795.3,286046997.1,N
1525552815.1,286046998.7,N
1525552835.9,286047000.9,N
1525552855.7,286047000.1,N
1525552875.6,286046999.7,N
1525552895.4,286047000.0,N
1525552915.2,286046996.6,N
1525552935.1,286046996.9,N
1525552936.0,286046996.9,N
1525552955.8,286046999.6,N
1525552975.7,286046998.2,N
1525552995.5,286046998.7,N
1525553015.3,286046999.3,N
1525553035.2,286046998.6,N
1525553055.9,286046998.4,N
1525553075.7,286047000.7,N
1525553095.6,286047000.9,N
1525553115.4,286046998.3,N
1525553135.3,286046998.9,N
1525553155.1,286046998.6,N
1525553156.0,286046998.6,N
1525553175.8,286046999.0,N
1525553195.7,286046999.1,N
1525553215.5,286046999.3,N
1525553235.3,286046997.8,N
1525553255.2,286046999.6,N
1525553275.0,286046997.0,N
1525553275.9,286046997.0,N
1525553295.8,286047000.7,N
1525553315.6,286046998.9,N
1525553335.4,286047000.7,N
1525553355.3,286046998.6,N
1525553375.1,286047001.1,N
1525553395.8,286047000.4,N
1525553415.7,286047000.6,N
1525553435.5,286046996.9,N
1525553455.4,286046997.4,N
1525553475.2,286046996.6,N
1525553495.0,286046998.0,N
1525553495.9,286046998.0,N
1525553515.8,286046996.8,N
1525553535.6,286046998.9,N
1525553555.5,286046996.7,N
1525553575.3,286046996.9,N
1525553595.1,286046999.1,N
1525553615.9,286046999.0,N
1525553635.7,286046998.9,N
1525553655.5,286047001.1,N
1525553675.4,286046997.1,N
1525553695.2,286046997.1,N
1525553715.1,286046996.7,N
1525553716.0,286046996.7,N
1525553735.8,286046999.0,N
1525553755.6,286046999.2,N
1525553775.5,286046995.6,N
1525553795.3,286047000.4,N
1525553815.2,286046998.2,N
1525553835.9,286046999.6,N
1525553855.7,286046999.1,N
1525553875.6,286046999.0,N
1525553895.4,286046999.0,N
1525553915.2,286046998.3,N
1525553935.1,286047000.1,N
1525553936.0,286047000.1,N
1525553955.8,286047002.8,N
1525553975.7,286047000.3,N
1525553995.5,286047002.5,N
